Topeka, KS

7:34 AM CDT on September 21, 2017 (GMT -0500)
Billard Municipal

Weather History for KTOP - September, 2013

Change the Weather History Date:

Saturday, September 14, 2013

  Actual Average Record
Temperature  
Mean Temperature 67 °F 69 °F  
Max Temperature 82 °F 81 °F 100 °F (1939)
Min Temperature 51 °F 57 °F 37 °F (1974)
Degree Days  
Heating Degree Days 0 2  
Month to date heating degree days 0 10  
Since 1 July heating degree days 0 12  
Cooling Degree Days 2 6  
Month to date cooling degree days 178 105  
Year to date cooling degree days 1472 1333  
Growing Degree Days 16 (Base 50)    
Moisture  
Dew Point 50 °F    
Average Humidity 61    
Maximum Humidity 89    
Minimum Humidity 33    
Precipitation  
Precipitation 0.00 in 0.12 in 4.59 in (1930)
Month to date precipitation 0.49 1.72  
Year to date precipitation 24.96 28.29  
Snow  
Snow 0.00 in 0.00 in T in (1930)
Month to date snowfall 0.0 0.0  
Year to date snowfall 24.2 11.3  
Since 1 July snowfall 0.0 0.0  
Snow Depth 0.00 in    
Sea Level Pressure  
Sea Level Pressure 30.02 in    
Wind  
Wind Speed 7 mph (SSE)    
Max Wind Speed 17 mph    
Max Gust Speed 22 mph    
Visibility 10 miles    
Events      
T = Trace of Precipitation, MM = Missing Value Source: NWS Daily Summary

Daily Weather History Graph

Daily Weather History Graph

Search for Another Location

Airport or City:

Trip Planner

Search our weather history database for the weather conditions in past years. The results will help you decide how hot, cold, wet, or windy it might be!

Date:

Astronomy

Sep. 14, 2013 Rise Set
Actual Time 7:03 AM CDT 7:31 PM CDT
Civil Twilight 6:36 AM CDT 7:58 PM CDT
Nautical Twilight 6:04 AM CDT 8:30 PM CDT
Astronomical Twilight 5:32 AM CDT 9:02 PM CDT
Moon 4:12 PM CDT (9/14) 1:37 AM CDT (9/14)
Length of Visible Light 13h 22m
Length of Day
12h 28m
Waxing Gibbous, 72% of the Moon is Illuminated
Sep 14
Waxing Gibbous
Sep 19
Full
Sep 26
Last Quarter
Oct 4
New
Oct 11
First Quarter

Hourly Weather History & Observations

Time (CDT) Temp. Dew Point Humidity Pressure Visibility Wind Dir Wind Speed Gust Speed Precip Events Conditions
12:53 AM 57.0 °F 51.1 °F 81% 30.07 in 10.0 mi Calm Calm - N/A   Clear
1:53 AM 54.0 °F 48.9 °F 83% 30.08 in 10.0 mi Calm Calm - N/A   Clear
2:53 AM 54.0 °F 50.0 °F 86% 30.07 in 10.0 mi Calm Calm - N/A   Clear
3:53 AM 53.1 °F 48.9 °F 86% 30.07 in 10.0 mi Calm Calm - N/A   Clear
4:53 AM 53.1 °F 48.0 °F 83% 30.07 in 10.0 mi Calm Calm - N/A   Clear
5:53 AM 53.1 °F 46.9 °F 80% 30.08 in 10.0 mi Calm Calm - N/A   Clear
6:53 AM 52.0 °F 46.9 °F 83% 30.08 in 10.0 mi Calm Calm - N/A   Clear
7:53 AM 55.0 °F 50.0 °F 83% 30.09 in 10.0 mi Calm Calm - N/A   Clear
8:53 AM 61.0 °F 52.0 °F 72% 30.09 in 10.0 mi East 4.6 mph - N/A   Clear
9:53 AM 66.9 °F 51.1 °F 57% 30.09 in 10.0 mi SSE 10.4 mph - N/A   Clear
10:53 AM 72.0 °F 52.0 °F 49% 30.08 in 10.0 mi SSE 10.4 mph - N/A   Clear
11:53 AM 75.0 °F 53.1 °F 46% 30.06 in 10.0 mi SSE 12.7 mph - N/A   Clear
12:53 PM 77.0 °F 52.0 °F 42% 30.04 in 10.0 mi SE 13.8 mph 18.4 mph N/A   Clear
1:53 PM 80.1 °F 50.0 °F 35% 30.01 in 10.0 mi SSE 13.8 mph - N/A   Clear
2:53 PM 81.0 °F 48.9 °F 33% 29.99 in 10.0 mi SSE 12.7 mph - N/A   Clear
3:53 PM 81.0 °F 50.0 °F 34% 29.97 in 10.0 mi SSE 15.0 mph - N/A   Clear
4:53 PM 80.1 °F 50.0 °F 35% 29.95 in 10.0 mi SSE 11.5 mph - N/A   Clear
5:53 PM 80.1 °F 50.0 °F 35% 29.94 in 10.0 mi SSE 12.7 mph - N/A   Clear
6:53 PM 77.0 °F 51.1 °F 40% 29.94 in 10.0 mi SE 9.2 mph - N/A   Clear
7:53 PM 73.0 °F 50.0 °F 44% 29.93 in 10.0 mi SE 6.9 mph - N/A   Clear
8:53 PM 71.1 °F 51.1 °F 49% 29.93 in 10.0 mi SE 6.9 mph - N/A   Clear
9:53 PM 72.0 °F 51.1 °F 48% 29.94 in 10.0 mi SE 6.9 mph - N/A   Clear
10:53 PM 72.0 °F 51.1 °F 48% 29.93 in 10.0 mi SSE 9.2 mph - N/A   Clear
11:53 PM 71.1 °F 51.1 °F 49% 29.93 in 10.0 mi SSE 6.9 mph - N/A   Clear